Regional Weather Roundup
Issued by NWS

Home | Current Version | Previous Version | Graphics & Text | Print | Product List | Glossary On
Versions: 1 2 3 4 5 6 7 8 9 10 11 12 13 14 15 16 17 18 19 20 21 22 23 24 25 26 27 28 29 30 31 32 33 34 35 36 37 38 39 40 41 42 43 44 45 46 47 48 49 50
000
ASUS43 KBIS 251802
RWRND

NORTH DAKOTA REGIONAL WEATHER ROUNDUP
NATIONAL WEATHER SERVICE BISMARCK ND
100 PM CDT WED MAY 25 2016

NOTE: "FAIR" INDICATES FEW OR NO CLOUDS BELOW 12,000 FEET WITH NO
SIGNIFICANT WEATHER AND/OR OBSTRUCTIONS TO VISIBILITY.


NDZ001>003-009>011-017-251900-
NORTHWEST NORTH DAKOTA

CITY           SKY/WX    TMP DP  RH WIND       PRES   REMARKS
WILLISTON      CLOUDY    54  49  83 N17       29.83S
6HR MIN TEMP:  52; 6HR MAX TEMP:  54; 6HR PCP:  0.31;

MINOT          CLOUDY    62  55  77 NE3       29.80F
MINOT AFB      CLOUDY    59  55  84 NE3       29.80S
$$

NDZ018>021-031>035-040>046-251900-
SOUTHWEST NORTH DAKOTA

CITY           SKY/WX    TMP DP  RH WIND       PRES   REMARKS
BISMARCK       CLOUDY    63  58  83 SE8       29.80R
6HR MIN TEMP:  57; 6HR MAX TEMP:  63; 6HR PCP:  0.04;

DICKINSON      CLOUDY    61  51  70 W14       29.79S
GARRISON         N/A     64  57  78 E10       29.79F
6HR MIN TEMP:  56; 6HR MAX TEMP:  64; 6HR PCP:  0.03;

HETTINGER ARPT CLOUDY    64  50  60 W14       29.82S
$$

NDZ004>008-012>016-024-026-027-054-251900-
NORTHEAST NORTH DAKOTA

CITY           SKY/WX    TMP DP  RH WIND       PRES   REMARKS
GRAND FORKS    TSTM      62  60  93 W18G24    29.78S VSB 1/2
GRND FRKS AFB  LGT RAIN  60  60  99 W7        29.82R
DEVILS LAKE    RAIN      58  56  93 N9        29.84S
$$

NDZ022-023-025-028>030-036>039-047>053-251900-
SOUTHEAST NORTH DAKOTA

CITY           SKY/WX    TMP DP  RH WIND       PRES   REMARKS
FARGO          LGT RAIN  64  59  83 E13       29.74F
6HR MIN TEMP:  63; 6HR MAX TEMP:  68; 6HR PCP:  0.36;

$$





USA.gov is the U.S. government's official web portal to all federal, state and local government web resources and services.